BON349R DTNH-FACT

Flight info

Callsign BON349R
Flight time N/A
Altitude 31000
Route ABGOL1D ABGOL DCT BAMGI UM731 FARES M731 DEKTU UG727 DIR UA607 FL/N0501F330 UA403 MOROS UM998 AMLOD/N0498F340 UV30 KSA/N0497F330 UT943 DILBO/N0493F350 UT943 IMVEX/N0494F340 UT943 UNLOK/N0493F350 UT943 VEDRY/N0491F340 UN185 OKLOK UQ23 DUMDO UZ26 ERDAS ERDAS1B
Aircraft B77W/H-SDE1E2E3FGHIJ2J3J4J5M1RWXY/LB1D1

Departure

Time 2026-04-29 08:15
Airport Enfidha - Hammamet International Airport (DTNH)

Arrival

Time N/A
Airport Cape Town International Airport (FACT)
Time Latitude Longitude Altitude Speed Heading
2026-04-29 07:01 36.07948 10.43530 28 ft 0 kts 180°
2026-04-29 08:03 36.07958 10.43530 28 ft 3 kts 180°
2026-04-29 08:03 36.07980 10.43530 28 ft 3 kts 180°
2026-04-29 08:04 36.07999 10.43531 28 ft 3 kts 190°
2026-04-29 08:04 36.08019 10.43538 27 ft 3 kts 212°
2026-04-29 08:04 36.08035 10.43555 27 ft 3 kts 238°
2026-04-29 08:04 36.08043 10.43579 28 ft 3 kts 259°
2026-04-29 08:05 36.08046 10.43606 28 ft 3 kts 270°
2026-04-29 08:05 36.08045 10.43632 29 ft 3 kts 270°
2026-04-29 08:05 36.08045 10.43659 28 ft 3 kts 270°
2026-04-29 08:05 36.08045 10.43680 29 ft 0 kts 270°
2026-04-29 08:08 36.08045 10.43671 29 ft 5 kts 270°
2026-04-29 08:08 36.08045 10.43586 28 ft 11 kts 270°
2026-04-29 08:08 36.08045 10.43487 27 ft 11 kts 270°
2026-04-29 08:09 36.08046 10.43391 27 ft 11 kts 270°
2026-04-29 08:09 36.08046 10.43293 27 ft 11 kts 270°
2026-04-29 08:09 36.08020 10.43206 29 ft 11 kts 216°
2026-04-29 08:09 36.07942 10.43192 29 ft 11 kts 179°
2026-04-29 08:10 36.07864 10.43192 29 ft 11 kts 180°
2026-04-29 08:10 36.07785 10.43186 30 ft 11 kts 204°
2026-04-29 08:10 36.07754 10.43098 32 ft 11 kts 263°
2026-04-29 08:10 36.07751 10.42980 35 ft 17 kts 268°
2026-04-29 08:11 36.07748 10.42837 37 ft 17 kts 268°
2026-04-29 08:11 36.07746 10.42693 36 ft 17 kts 270°
2026-04-29 08:11 36.07752 10.42550 37 ft 17 kts 275°
2026-04-29 08:11 36.07757 10.42407 39 ft 17 kts 269°
2026-04-29 08:12 36.07755 10.42263 36 ft 17 kts 269°
2026-04-29 08:12 36.07752 10.42120 35 ft 17 kts 268°
2026-04-29 08:12 36.07694 10.42041 35 ft 11 kts 180°
2026-04-29 08:12 36.07622 10.42043 35 ft 10 kts 179°
2026-04-29 08:13 36.07588 10.42062 35 ft 5 kts 120°
2026-04-29 08:13 36.07585 10.42087 36 ft 0 kts 90°
2026-04-29 08:14 36.07585 10.42144 37 ft 20 kts 90°
2026-04-29 08:14 36.07581 10.42636 37 ft 95 kts 90°
2026-04-29 08:14 36.07578 10.43752 36 ft 162 kts 90°
2026-04-29 08:14 36.07558 10.45336 193 ft 197 kts 90°
2026-04-29 08:15 36.07549 10.47026 795 ft 199 kts 89°
2026-04-29 08:15 36.07222 10.48673 1340 ft 204 kts 123°
2026-04-29 08:15 36.06093 10.49713 1882 ft 206 kts 161°
2026-04-29 08:15 36.04635 10.49692 2157 ft 215 kts 194°
2026-04-29 08:16 36.03286 10.49064 2773 ft 201 kts 192°
2026-04-29 08:16 36.01943 10.48748 3152 ft 200 kts 186°
2026-04-29 08:16 36.00516 10.48402 3351 ft 216 kts 188°
2026-04-29 08:16 35.98989 10.47992 3607 ft 232 kts 188°
2026-04-29 08:17 35.97363 10.47911 3949 ft 239 kts 167°
2026-04-29 08:17 35.95720 10.48461 4335 ft 250 kts 161°
2026-04-29 08:17 35.94040 10.49166 4836 ft 260 kts 160°
2026-04-29 08:17 35.92326 10.49856 5379 ft 264 kts 168°
2026-04-29 08:18 35.90450 10.49767 5839 ft 272 kts 195°
2026-04-29 08:18 35.88662 10.49042 6383 ft 277 kts 196°
2026-04-29 08:18 35.86816 10.48330 7027 ft 279 kts 195°
2026-04-29 08:18 35.84956 10.47622 7703 ft 280 kts 196°
2026-04-29 08:19 35.83075 10.46906 8289 ft 285 kts 197°
2026-04-29 08:19 35.81162 10.46175 8855 ft 289 kts 197°
2026-04-29 08:19 35.79235 10.45437 9457 ft 291 kts 197°
2026-04-29 08:19 35.77291 10.44695 10064 ft 293 kts 198°
2026-04-29 08:20 35.75338 10.43949 10456 ft 306 kts 198°
2026-04-29 08:20 35.73224 10.43195 10586 ft 325 kts 193°
2026-04-29 08:20 35.70911 10.42873 10750 ft 346 kts 182°
2026-04-29 08:20 35.68446 10.43080 10914 ft 365 kts 173°
2026-04-29 08:21 35.65886 10.43559 11301 ft 377 kts 172°
2026-04-29 08:21 35.63269 10.44097 11843 ft 384 kts 172°
2026-04-29 08:21 35.60624 10.44648 12482 ft 388 kts 172°
2026-04-29 08:21 35.57955 10.45197 13171 ft 390 kts 173°
2026-04-29 08:22 35.55264 10.45738 13817 ft 394 kts 173°
2026-04-29 08:22 35.52538 10.46275 14470 ft 398 kts 173°
2026-04-29 08:22 35.49829 10.46802 15100 ft 401 kts 173°
2026-04-29 08:22 35.47023 10.47343 15725 ft 405 kts 174°
2026-04-29 08:23 35.44233 10.47878 16328 ft 408 kts 174°
2026-04-29 08:23 35.41449 10.48410 16900 ft 412 kts 174°
2026-04-29 08:23 35.38596 10.48954 17472 ft 416 kts 174°
2026-04-29 08:23 35.35723 10.49501 18046 ft 419 kts 174°
2026-04-29 08:24 35.32821 10.50053 18582 ft 423 kts 174°
2026-04-29 08:24 35.29905 10.50607 19122 ft 426 kts 174°
2026-04-29 08:24 35.26959 10.51168 19690 ft 429 kts 174°
2026-04-29 08:24 35.24004 10.51729 20225 ft 431 kts 174°
2026-04-29 08:25 35.21023 10.52295 20732 ft 435 kts 174°
2026-04-29 08:25 35.18056 10.52858 21225 ft 438 kts 175°
2026-04-29 08:25 35.15034 10.53431 21714 ft 440 kts 175°
2026-04-29 08:25 35.11998 10.54006 22175 ft 443 kts 175°
2026-04-29 08:26 35.08929 10.54588 22632 ft 446 kts 175°
2026-04-29 08:26 35.05843 10.55172 23085 ft 449 kts 175°
2026-04-29 08:26 35.02746 10.55757 23511 ft 452 kts 175°
2026-04-29 08:26 34.99627 10.56345 23940 ft 455 kts 175°
2026-04-29 08:27 34.96489 10.56938 24367 ft 457 kts 175°
2026-04-29 08:27 34.93333 10.57534 24764 ft 460 kts 176°
2026-04-29 08:27 34.90155 10.58133 25132 ft 464 kts 176°
2026-04-29 08:27 34.86989 10.58728 25496 ft 466 kts 176°
2026-04-29 08:28 34.83771 10.59333 25851 ft 469 kts 176°